TimeAKST,TemperatureF,Dew PointF,Humidity,Sea Level PressureIn,VisibilityMPH,Wind Direction,Wind SpeedMPH,Gust SpeedMPH,PrecipitationIn,Events,Conditions,WindDirDegrees,DateUTC
12:53 AM,-43.1,-9999,N/A,30.06,10.0,Calm,Calm,-,N/A,,Clear,0,2012-12-02 09:53:00
1:11 AM,-43.6,-9999,N/A,29.91,10.0,Calm,Calm,-,N/A,,Scattered Clouds,0,2012-12-02 10:11:00
1:27 AM,-43.6,-9999,N/A,29.90,10.0,Calm,Calm,-,N/A,,Mostly Cloudy,0,2012-12-02 10:27:00
1:36 AM,-43.6,-9999,N/A,29.90,9.0,Calm,Calm,-,N/A,,Mostly Cloudy,0,2012-12-02 10:36:00
1:53 AM,-43.1,-9999,N/A,30.04,7.0,Calm,Calm,-,N/A,,Overcast,0,2012-12-02 10:53:00
2:03 AM,-43.6,-9999,N/A,29.90,8.0,Calm,Calm,-,N/A,,Mostly Cloudy,0,2012-12-02 11:03:00
2:11 AM,-43.6,-9999,N/A,29.90,6.0,Calm,Calm,-,N/A,,Haze,0,2012-12-02 11:11:00
2:19 AM,-43.6,-9999,N/A,29.90,5.0,Calm,Calm,-,N/A,,Haze,0,2012-12-02 11:19:00
2:49 AM,-43.6,-9999,N/A,29.90,8.0,Calm,Calm,-,N/A,,Scattered Clouds,0,2012-12-02 11:49:00
3:53 AM,-40.0,-9999,N/A,30.03,7.0,Calm,Calm,-,N/A,,Overcast,0,2012-12-02 12:53:00
4:53 AM,-38.0,-9999,N/A,30.02,8.0,Calm,Calm,-,N/A,,Overcast,0,2012-12-02 13:53:00
5:53 AM,-36.9,-9999,N/A,30.02,9.0,Calm,Calm,-,N/A,,Overcast,0,2012-12-02 14:53:00
6:53 AM,-36.9,-9999,N/A,30.01,10.0,Calm,Calm,-,N/A,,Overcast,0,2012-12-02 15:53:00
7:53 AM,-38.0,-9999,N/A,30.02,8.0,Calm,Calm,-,N/A,,Overcast,0,2012-12-02 16:53:00
8:53 AM,-36.9,-9999,N/A,30.02,7.0,Calm,Calm,-,N/A,,Overcast,0,2012-12-02 17:53:00
9:53 AM,-36.9,-9999,N/A,30.03,8.0,Calm,Calm,-,N/A,,Overcast,0,2012-12-02 18:53:00
10:53 AM,-35.0,-9999,N/A,30.03,8.0,Calm,Calm,-,N/A,,Overcast,0,2012-12-02 19:53:00
11:53 AM,-35.0,-9999,N/A,30.04,6.0,Calm,Calm,-,N/A,,Haze,0,2012-12-02 20:53:00
12:53 PM,-35.0,-9999,N/A,30.03,9.0,Calm,Calm,-,N/A,,Overcast,0,2012-12-02 21:53:00
1:53 PM,-34.1,-9999,N/A,30.03,10.0,Calm,Calm,-,N/A,,Overcast,0,2012-12-02 22:53:00
2:53 PM,-34.1,-9999,N/A,30.04,10.0,Calm,Calm,-,N/A,,Overcast,0,2012-12-02 23:53:00
3:53 PM,-35.0,-9999,N/A,30.05,10.0,Calm,Calm,-,N/A,,Overcast,0,2012-12-03 00:53:00
4:28 PM,-36.4,-9999,N/A,29.91,10.0,Calm,Calm,-,N/A,,Scattered Clouds,0,2012-12-03 01:28:00
4:53 PM,-38.0,-9999,N/A,30.06,8.0,Calm,Calm,-,N/A,,Scattered Clouds,0,2012-12-03 01:53:00
5:05 PM,-38.2,-9999,N/A,29.92,10.0,Calm,Calm,-,N/A,,Mostly Cloudy,0,2012-12-03 02:05:00
5:44 PM,-38.2,-9999,N/A,29.93,10.0,Calm,Calm,-,N/A,,Overcast,0,2012-12-03 02:44:00
5:53 PM,-38.0,-9999,N/A,30.07,10.0,Calm,Calm,-,N/A,,Overcast,0,2012-12-03 02:53:00
6:53 PM,-38.9,-9999,N/A,30.08,9.0,Calm,Calm,-,N/A,,Overcast,0,2012-12-03 03:53:00
7:53 PM,-38.9,-9999,N/A,30.11,10.0,Calm,Calm,-,N/A,,Overcast,0,2012-12-03 04:53:00
8:53 PM,-40.0,-9999,N/A,30.11,9.0,Calm,Calm,-,N/A,,Overcast,0,2012-12-03 05:53:00
9:53 PM,-38.9,-9999,N/A,30.12,9.0,Calm,Calm,-,N/A,,Overcast,0,2012-12-03 06:53:00
10:53 PM,-40.0,-9999,N/A,30.14,6.0,Calm,Calm,-,N/A,,Haze,0,2012-12-03 07:53:00
11:53 PM,-40.0,-9999,N/A,30.14,5.0,Calm,Calm,-,N/A,,Haze,0,2012-12-03 08:53:00